[[{"header":{"parameterUnit":"m.s-1","parameterCategory":1,"la1":30.2991,"la2":30.254,"lo1":-89.0895,"lo2":-89.0444,"dy":0.0017,"dx":0.0017,"nx":28,"ny":28,"refTime":"2025-01-12T09:00:00:Z","depth":0,"parameterNumber":2,"parameterNumberName":"U-component_of_WINDS"},"data":[0,0,0,0,0,0,0,0,0,0,0,0,0,0,0,0,0,0,0,0,0,0,0,0,0,0,0,0,0,0,0,0,0,0,0,0,0,0,0,0,0,0,0,0,0,0,0,0,0,0,0,0,0,0,0,0,0,0,-5.2688,-5.2688,0,-5.2683,-5.2683,-5.2683,-5.2516,-5.2512,-5.2508,-5.2504,-5.2501,-5.2504,-5.2508,0,0,0,0,0,0,0,0,0,0,0,0,0,-5.2556,-5.2559,-5.2688,-5.2688,-5.2688,-5.2683,-5.2683,-5.2683,-5.2517,-5.2512,-5.2507,-5.2502,-5.2499,-5.2504,-5.2509,0,0,0,0,0,0,0,0,0,0,0,0,0,-5.2589,-5.256,-5.2688,-5.2605,-5.2597,-5.2683,-5.2683,-5.2683,-5.2518,-5.2512,-5.2505,-5.2499,-5.2498,-5.2503,-5.2509,-5.2675,0,0,-5.2527,-5.253,0,0,0,0,0,0,0,0,-5.2587,-5.2594,-5.2617,-5.261,-5.2602,-5.2593,-5.2635,-5.268,-5.252,-5.2548,-5.2503,-5.2496,-5.2537,-5.2539,-5.2552,-5.2675,-5.2675,-5.2528,-5.2531,-5.2534,-5.2536,0,0,0,0,0,0,0,-5.2585,-5.2593,-5.2686,-5.2617,-5.2608,-5.2568,-5.2565,-5.2643,-5.2579,-5.2545,-5.2533,-5.2535,-5.2532,-5.2547,-5.2551,-5.2675,-5.2528,-5.2533,-5.2537,-5.2539,-5.2932,-5.2939,0,0,0,0,0,0,-5.2594,-5.2592,-5.2686,-5.2686,-5.2578,-5.2576,-5.2573,-5.2603,-5.2578,-5.2567,-5.254,-5.2527,-5.254,-5.2544,-5.255,-5.2741,-5.2534,-5.2539,-5.2543,-5.2925,-5.2934,-5.2941,0,0,0,0,0,0,-5.2592,-5.2604,-5.2686,-5.2636,-5.2643,-5.2585,-5.262,-5.2606,-5.2621,-5.2574,-5.2562,-5.2568,-5.2535,-5.2542,-5.2645,-5.2739,-5.2542,-5.2548,-5.2917,-5.2928,-5.2937,-5.3126,0,0,0,0,0,0,-5.2589,-5.2604,-5.2666,-5.2638,-5.2646,-5.2781,-5.2626,-5.2611,-5.2632,-5.2614,-5.2596,-5.2587,-5.2531,-5.2637,-5.2651,-5.2744,-5.2552,-5.2908,-5.2922,-5.2934,-5.3111,-5.3142,-5.3168,0,0,0,0,0,-5.2584,-5.272,-5.267,-5.2682,-5.2723,-5.2787,-5.2791,-5.2723,-5.264,-5.2702,-5.2671,-5.2588,-5.2727,-5.2649,-5.2663,-5.2759,-5.2902,-5.2918,-5.2933,-5.3099,-5.3136,-5.3167,0,0,0,0,0,0,-5.2761,-5.2715,-5.2659,-5.279,-5.2793,-5.2758,-5.2834,-5.2765,-5.2792,-5.2775,-5.269,-5.2687,-5.2803,-5.2792,-5.2705,-5.2918,-5.28,-5.2819,-5.2921,-5.2956,-5.2984,-5.2983,-5.2557,0,0,0,0,0,-5.2816,-5.2871,-5.2828,-5.2947,-5.2952,-5.2894,-5.2919,-5.2866,-5.2866,-5.2867,-5.2844,-5.2849,-5.2893,-5.2924,-5.2962,-5.311,-5.3103,-5.3183,-5.3211,-5.3234,-5.3251,-5.3327,-5.3362,-5.2992,-5.2992,-5.2992,0,0,-5.2928,-5.291,-5.295,-5.2982,-5.2979,-5.3038,-5.2896,-5.2965,-5.3008,-5.2878,-5.2972,-5.2957,-5.2956,-5.3081,-5.3135,-5.3075,-5.3352,-5.3254,-5.3273,-5.3277,-5.3347,-5.3382,-5.3413,-5.3003,-5.3001,-5.2999,0,0,-5.3163,-5.3155,-5.3253,-5.3252,-5.3249,-5.3209,-5.3233,-5.3209,-5.3192,-5.3286,-5.319,-5.3241,-5.3319,-5.3322,-5.3334,-5.3571,-5.3495,-5.3586,-5.3733,-5.3808,-5.3837,-5.3862,-5.3945,-5.3976,-5.3604,-5.3604,-5.3604,0,-5.3303,-5.3388,-5.3312,-5.3387,-5.3404,-5.3289,-5.3387,-5.3391,-5.3401,-5.3415,-5.3348,-5.3443,-5.3435,-5.3559,-5.3617,-5.3631,-5.3655,-5.3587,-5.3839,-5.3864,-5.3886,-5.3964,-5.3996,-5.3615,-5.3614,-5.3613,-5.3612,0,-5.356,-5.3621,-5.37,-5.3711,-5.3737,-5.3824,-5.3762,-5.3798,-5.3743,-5.3711,-5.3808,-5.3794,-5.3827,-5.3853,-5.3801,-5.397,-5.3932,-5.3854,-5.3733,-5.3934,-5.4006,-5.4035,-5.3631,-5.3627,-5.3624,-5.3621,0,0,-5.3905,-5.3873,-5.3903,-5.3906,-5.3894,-5.394,-5.4022,-5.4053,-5.4085,-5.4096,-5.4162,-5.4231,-5.4158,-5.4172,-5.4119,-5.4186,-5.4372,-5.4098,-5.4096,-5.4148,-5.4556,-5.4614,-5.465,-5.4322,-5.4328,-5.4332,-5.4555,0,-5.413,-5.4266,-5.4201,-5.4345,-5.44,-5.4291,-5.4362,-5.4363,-5.4336,-5.4378,-5.4348,-5.4398,-5.4298,-5.4306,-5.4366,-5.4337,-5.4453,-5.432,-5.4382,-5.4385,-5.4384,-5.4687,-5.4749,-5.496,-5.4583,-5.4588,-5.4591,0,-5.4411,-5.4432,-5.4582,-5.4559,-5.4579,-5.4644,-5.4667,-5.471,-5.4709,-5.4684,-5.47,-5.4632,-5.471,-5.4593,-5.47,-5.4611,-5.4633,-5.4622,-5.4629,-5.463,-5.4499,-5.4696,-5.5026,-5.5057,-5.4635,-5.4632,-5.4629,0,-5.4645,-5.4712,-5.4809,-5.4816,-5.4792,-5.484,-5.4833,-5.4825,-5.4848,-5.4869,-5.4882,-5.4913,-5.493,-5.4955,-5.4898,-5.4817,-5.5013,-5.489,-5.4993,-5.4995,-5.5038,-5.5035,-5.5375,-5.5056,-5.5056,-5.5055,-5.5054,0,-5.4902,-5.4998,-5.4914,-5.4974,-5.5077,-5.5002,-5.5107,-5.5088,-5.5082,-5.5136,-5.5046,-5.5099,-5.502,-5.5066,-5.5022,-5.5117,-5.5126,-5.5107,-5.5094,-5.5114,-5.5116,-5.5126,-5.5109,-5.5063,-5.5062,-5.506,-5.5059,0,-5.518,-5.5128,-5.5227,-5.5196,-5.5191,-5.5269,-5.5242,-5.5297,-5.5263,-5.5333,-5.5346,-5.5293,-5.5342,-5.5288,-5.5333,-5.5303,-5.5431,-5.5397,-5.5431,-5.542,-5.5526,-5.5516,-5.5881,-5.5925,-5.5581,-5.5585,-5.5588,0,-5.5347,-5.5417,-5.5394,-5.5423,-5.5421,-5.547,-5.5493,-5.5422,-5.5449,-5.5453,-5.5507,-5.5549,-5.5577,-5.5661,-5.5628,-5.5662,-5.5627,-5.5753,-5.5631,-5.5649,-5.5626,-5.5622,-5.5628,-5.5777,-5.5781,-5.5784,-5.5787,0,-5.5647,-5.5617,-5.5653,-5.568,-5.571,-5.5728,-5.5739,-5.5769,-5.5695,-5.5731,-5.5779,-5.5802,-5.5848,-5.589,-5.5915,-5.5907,-5.5835,-5.5826,-5.5851,-5.5871,-5.5887,-5.5878,-5.5496,-5.5817,-5.5814,-5.5812,-5.581,-5.5809,-5.5872,-5.5929,-5.5921,-5.5964,-5.5965,-5.5978,-5.6027,-5.6,-5.6039,-5.6069,-5.6026,-5.6086,-5.6083,-5.6108,-5.611,-5.6156,-5.6102,-5.614,-5.6148,-5.6158,-5.6173,-5.5882,-5.6161,-5.616,-5.6159,-5.6158,-5.6157,0,-5.6166,-5.6155,-5.6196,-5.6214,-5.6248,-5.6177,-5.6186,-5.6219,-5.6273,-5.6276,-5.6306,-5.6362,-5.6402,-5.6372,-5.6406,-5.6449,-5.6417,-5.646,-5.6455,-5.6454,-5.622,-5.6194,-5.6485,-5.6485,-5.6485,-5.6485,-5.6485,-5.6485,-5.6322,-5.6414,-5.6385,-5.6477,-5.6466,-5.6523,-5.6534,-5.6545,-5.6547,-5.6613,-5.6646,-5.6626,-5.6616,-5.6648,-5.6682,-5.6672,-5.6688,-5.6743,-5.6721,-5.6503,-5.6471,-5.644,-5.6414,-5.6748,-5.6748,-5.6951,-5.6953,-5.6954]},{"header":{"parameterUnit":"m.s-1","parameterCategory":1,"la1":30.2991,"la2":30.254,"lo1":-89.0895,"lo2":-89.0444,"dy":0.0017,"dx":0.0017,"nx":28,"ny":28,"refTime":"2025-01-12T09:00:00:Z","depth":0,"parameterNumber":3,"parameterNumberName":"V-component_of_WINDS"},"data":[0,0,0,0,0,0,0,0,0,0,0,0,0,0,0,0,0,0,0,0,0,0,0,0,0,0,0,0,0,0,0,0,0,0,0,0,0,0,0,0,0,0,0,0,0,0,0,0,0,0,0,0,0,0,0,0,0,0,-0.0606,-0.0606,0,-0.0663,-0.0663,-0.0664,-0.0719,-0.0719,-0.072,-0.0721,-0.0779,-0.078,-0.0781,0,0,0,0,0,0,0,0,0,0,0,0,0,-0.0544,-0.0545,-0.0606,-0.0606,-0.0607,-0.0663,-0.0663,-0.0664,-0.0719,-0.0719,-0.072,-0.0721,-0.0779,-0.078,-0.0781,0,0,0,0,0,0,0,0,0,0,0,0,0,-0.0583,-0.0545,-0.0606,-0.0641,-0.0645,-0.0662,-0.0663,-0.0664,-0.0718,-0.0719,-0.072,-0.0721,-0.0779,-0.078,-0.0781,-0.0769,0,0,-0.0786,-0.0786,0,0,0,0,0,0,0,0,-0.058,-0.0585,-0.0635,-0.0639,-0.0643,-0.0685,-0.0663,-0.0699,-0.0718,-0.069,-0.0721,-0.0722,-0.0747,-0.0751,-0.0759,-0.0772,-0.0774,-0.0786,-0.0787,-0.0787,-0.0788,0,0,0,0,0,0,0,-0.0578,-0.0583,-0.0628,-0.0636,-0.064,-0.0654,-0.0661,-0.067,-0.0712,-0.0693,-0.0697,-0.0703,-0.0749,-0.0758,-0.0761,-0.0775,-0.0786,-0.0787,-0.0788,-0.0788,-0.0778,-0.0777,0,0,0,0,0,0,-0.057,-0.058,-0.0626,-0.063,-0.0614,-0.0654,-0.0662,-0.067,-0.0712,-0.072,-0.0702,-0.0705,-0.0755,-0.076,-0.0764,-0.075,-0.0787,-0.0788,-0.0789,-0.0779,-0.0778,-0.0777,0,0,0,0,0,0,-0.0568,-0.0573,-0.0624,-0.0606,-0.0614,-0.0654,-0.0663,-0.0671,-0.0679,-0.0719,-0.0727,-0.0703,-0.0756,-0.0762,-0.0767,-0.0753,-0.0789,-0.079,-0.078,-0.0779,-0.0777,-0.0724,0,0,0,0,0,0,-0.0566,-0.0572,-0.0568,-0.0606,-0.0614,-0.0626,-0.0662,-0.0671,-0.0682,-0.0686,-0.0722,-0.0729,-0.0757,-0.0764,-0.0768,-0.0755,-0.0791,-0.0782,-0.078,-0.0778,-0.0727,-0.072,-0.0715,0,0,0,0,0,-0.0564,-0.0551,-0.0567,-0.0573,-0.061,-0.0625,-0.063,-0.0663,-0.068,-0.0676,-0.0701,-0.0728,-0.0754,-0.0764,-0.0769,-0.0757,-0.0783,-0.078,-0.0778,-0.0729,-0.0722,-0.0715,0,0,0,0,0,0,-0.0511,-0.0557,-0.0575,-0.0575,-0.0596,-0.0635,-0.063,-0.0654,-0.0671,-0.0674,-0.0715,-0.0722,-0.0722,-0.074,-0.0751,-0.0746,-0.0772,-0.077,-0.0734,-0.0727,-0.0721,-0.0715,-0.0792,0,0,0,0,0,-0.0499,-0.0508,-0.0548,-0.0543,-0.0553,-0.0589,-0.0598,-0.0621,-0.0644,-0.0653,-0.0679,-0.0701,-0.0714,-0.0722,-0.0736,-0.073,-0.0738,-0.0724,-0.0718,-0.0713,-0.071,-0.0707,-0.0701,-0.0768,-0.0768,-0.0769,0,0,-0.0475,-0.0501,-0.0505,-0.0533,-0.0552,-0.056,-0.0597,-0.0604,-0.0609,-0.0655,-0.066,-0.068,-0.0707,-0.0706,-0.0707,-0.0721,-0.0693,-0.071,-0.0705,-0.0706,-0.0704,-0.0697,-0.0691,-0.0767,-0.0767,-0.0767,0,0,-0.0435,-0.0456,-0.0454,-0.0472,-0.05,-0.0525,-0.0524,-0.0559,-0.0574,-0.058,-0.0613,-0.0621,-0.0643,-0.066,-0.0672,-0.0637,-0.0662,-0.0641,-0.0609,-0.0605,-0.06,-0.0595,-0.0581,-0.0576,-0.0639,-0.0639,-0.0639,0,-0.0401,-0.0414,-0.045,-0.0454,-0.0465,-0.0506,-0.0504,-0.052,-0.0551,-0.0557,-0.0573,-0.06,-0.0622,-0.0624,-0.0616,-0.0624,-0.0624,-0.0636,-0.0598,-0.0594,-0.059,-0.0577,-0.0571,-0.0636,-0.0636,-0.0636,-0.0637,0,-0.0371,-0.0379,-0.0374,-0.0402,-0.0413,-0.0414,-0.0449,-0.0456,-0.0478,-0.0501,-0.0506,-0.0533,-0.0552,-0.0555,-0.0578,-0.0561,-0.0568,-0.059,-0.0617,-0.058,-0.0568,-0.0563,-0.0632,-0.0633,-0.0634,-0.0634,0,0,-0.0298,-0.0346,-0.0343,-0.0355,-0.0389,-0.0396,-0.0399,-0.0418,-0.0422,-0.0442,-0.0444,-0.0462,-0.0482,-0.0495,-0.0519,-0.0516,-0.0485,-0.0539,-0.054,-0.0526,-0.0466,-0.0447,-0.0441,-0.0502,-0.0501,-0.05,-0.0463,0,-0.0262,-0.0268,-0.03,-0.0297,-0.0304,-0.0343,-0.0345,-0.0366,-0.0387,-0.0396,-0.042,-0.043,-0.0457,-0.0465,-0.0464,-0.0489,-0.0473,-0.0492,-0.0503,-0.0503,-0.0493,-0.0435,-0.0416,-0.0379,-0.0458,-0.0458,-0.0457,0,-0.022,-0.0237,-0.0234,-0.0266,-0.027,-0.0271,-0.029,-0.0299,-0.0323,-0.0339,-0.0353,-0.038,-0.0385,-0.0411,-0.0416,-0.0429,-0.0436,-0.0448,-0.0448,-0.0448,-0.0476,-0.0432,-0.0368,-0.0361,-0.0451,-0.0451,-0.0452,0,-0.0164,-0.0186,-0.0187,-0.0197,-0.0236,-0.0235,-0.0251,-0.0276,-0.0285,-0.0302,-0.0308,-0.0325,-0.0334,-0.0347,-0.0378,-0.0395,-0.0379,-0.0409,-0.0391,-0.039,-0.0385,-0.0384,-0.0319,-0.0392,-0.0393,-0.0393,-0.0393,0,-0.0119,-0.0115,-0.0162,-0.0163,-0.0159,-0.0196,-0.0192,-0.0212,-0.0233,-0.0238,-0.0274,-0.0277,-0.0319,-0.0327,-0.0352,-0.0351,-0.0356,-0.0368,-0.0374,-0.0363,-0.0361,-0.0367,-0.0369,-0.0391,-0.0392,-0.0392,-0.0392,0,-0.0056,-0.0087,-0.009,-0.0126,-0.0135,-0.0131,-0.0161,-0.0163,-0.0186,-0.0191,-0.0195,-0.0231,-0.0242,-0.0275,-0.0295,-0.0312,-0.0303,-0.0317,-0.0295,-0.0298,-0.0278,-0.0279,-0.0212,-0.0204,-0.0284,-0.0284,-0.0283,0,-0.0024,-0.0022,-0.0057,-0.0062,-0.0076,-0.0085,-0.0094,-0.013,-0.0138,-0.0164,-0.0162,-0.0176,-0.0189,-0.0205,-0.0233,-0.0248,-0.0261,-0.0236,-0.0263,-0.0252,-0.0257,-0.0256,-0.0255,-0.0229,-0.0228,-0.0228,-0.0227,0,0.0037,0.0022,0.001,-0.0006,-0.0015,-0.003,-0.0047,-0.0049,-0.009,-0.0097,-0.0108,-0.0118,-0.0138,-0.0151,-0.017,-0.0187,-0.0213,-0.0219,-0.0215,-0.0203,-0.0189,-0.0194,-0.0276,-0.0219,-0.022,-0.0221,-0.0221,-0.0221,0.0087,0.0088,0.0064,0.0053,0.0036,0.0022,0.0019,-0.0004,-0.0014,-0.0033,-0.0054,-0.0062,-0.0086,-0.0114,-0.0129,-0.0136,-0.015,-0.0145,-0.0144,-0.0141,-0.0135,-0.019,-0.014,-0.014,-0.014,-0.0141,-0.0141,0,0.0148,0.0131,0.0121,0.0099,0.0091,0.0066,0.0046,0.0041,0.0034,0.0015,0.0003,-0.0009,-0.0022,-0.0051,-0.0066,-0.0066,-0.0078,-0.0068,-0.0068,-0.007,-0.0123,-0.0124,-0.0058,-0.0058,-0.0058,-0.0058,-0.0058,-0.0058,0.0179,0.018,0.0162,0.0155,0.0137,0.0129,0.012,0.0106,0.0091,0.0079,0.0069,0.0049,0.0026,0.0009,-0.0003,-0.0011,-0.0014,0.0,-0.0011,-0.0059,-0.0067,-0.0075,-0.0075,-0.0,-0.0,0.0042,0.0042,0.0043]}]]